TimeCST,TemperatureF,Dew PointF,Humidity,Sea Level PressureIn,VisibilityMPH,Wind Direction,Wind SpeedMPH,Gust SpeedMPH,PrecipitationIn,Events,Conditions,WindDirDegrees,DateUTC
12:53 AM,25.0,15.1,66,30.08,10.0,SW,17.3,-,N/A,,Overcast,220,2013-02-02 06:53:00
1:53 AM,26.1,16.0,66,30.08,10.0,SW,13.8,-,N/A,,Overcast,230,2013-02-02 07:53:00
2:51 AM,26.6,17.6,69,30.02,10.0,WSW,13.8,-,N/A,,Overcast,240,2013-02-02 08:51:00
2:53 AM,26.1,17.1,69,30.06,10.0,WSW,15.0,-,N/A,,Overcast,240,2013-02-02 08:53:00
3:04 AM,26.6,17.6,69,30.02,10.0,WSW,15.0,-,N/A,,Overcast,250,2013-02-02 09:04:00
3:53 AM,26.1,17.1,69,30.05,10.0,WSW,12.7,-,N/A,,Overcast,250,2013-02-02 09:53:00
4:53 AM,27.0,17.1,66,30.05,10.0,West,11.5,-,N/A,,Overcast,280,2013-02-02 10:53:00
5:53 AM,24.8,17.6,74,30.03,10.0,NW,19.6,-,N/A,,Mostly Cloudy,310,2013-02-02 11:53:00
6:53 AM,21.0,15.1,78,30.11,10.0,NNW,20.7,-,N/A,,Partly Cloudy,330,2013-02-02 12:53:00
7:31 AM,19.4,14.0,80,30.09,10.0,NNW,19.6,-,N/A,,Mostly Cloudy,330,2013-02-02 13:31:00
7:53 AM,19.9,14.0,78,30.14,9.0,NNW,23.0,28.8,N/A,,Overcast,330,2013-02-02 13:53:00
8:53 AM,19.0,12.9,77,30.17,8.0,NNW,18.4,-,0.00,,Overcast,330,2013-02-02 14:53:00
9:35 AM,19.4,12.2,74,30.13,2.0,NNW,16.1,-,0.00,Snow,Light Snow,330,2013-02-02 15:35:00
9:45 AM,19.4,12.2,74,30.13,6.0,NW,16.1,-,0.00,Snow,Light Snow,320,2013-02-02 15:45:00
9:53 AM,19.0,12.9,77,30.18,2.0,NW,16.1,-,0.00,Snow,Light Snow,320,2013-02-02 15:53:00
10:06 AM,19.4,12.2,74,30.14,9.0,NW,19.6,-,0.00,,Scattered Clouds,310,2013-02-02 16:06:00
10:53 AM,18.0,10.9,74,30.19,10.0,NW,17.3,-,0.00,,Clear,310,2013-02-02 16:53:00
11:53 AM,19.0,10.0,68,30.19,10.0,NNW,15.0,-,N/A,,Clear,330,2013-02-02 17:53:00
12:53 PM,18.0,9.0,68,30.17,10.0,WNW,11.5,-,N/A,,Scattered Clouds,300,2013-02-02 18:53:00
1:00 PM,19.4,10.4,68,30.14,10.0,NNW,11.5,-,N/A,,Mostly Cloudy,330,2013-02-02 19:00:00
1:07 PM,17.6,8.6,68,30.13,10.0,NNW,13.8,-,N/A,,Scattered Clouds,330,2013-02-02 19:07:00
1:53 PM,18.0,7.0,62,30.18,10.0,NNW,15.0,-,N/A,,Mostly Cloudy,330,2013-02-02 19:53:00
2:53 PM,19.0,8.1,62,30.18,10.0,WNW,13.8,-,N/A,,Mostly Cloudy,300,2013-02-02 20:53:00
3:53 PM,19.0,8.1,62,30.18,10.0,NNW,11.5,-,N/A,,Mostly Cloudy,330,2013-02-02 21:53:00
4:53 PM,19.0,8.1,62,30.17,10.0,NW,6.9,-,N/A,,Overcast,310,2013-02-02 22:53:00
5:53 PM,19.0,9.0,65,30.14,10.0,Calm,Calm,-,N/A,,Overcast,0,2013-02-02 23:53:00
6:43 PM,19.4,8.6,63,30.08,10.0,Calm,Calm,-,N/A,,Overcast,0,2013-02-03 00:43:00
6:53 PM,19.9,9.0,62,30.12,10.0,Calm,Calm,-,N/A,,Overcast,0,2013-02-03 00:53:00
7:16 PM,19.4,10.4,68,30.10,1.8,Calm,Calm,-,0.00,Snow,Light Snow,0,2013-02-03 01:16:00
7:34 PM,17.6,12.2,79,30.09,1.0,South,3.5,-,0.00,Snow,Light Snow,190,2013-02-03 01:34:00
7:44 PM,17.6,12.2,79,30.09,2.0,SW,3.5,-,0.01,Snow,Light Snow,230,2013-02-03 01:44:00
7:53 PM,18.0,14.0,84,30.13,2.0,SSW,3.5,-,0.01,Snow,Light Snow,210,2013-02-03 01:53:00
8:00 PM,17.6,14.0,86,30.09,1.5,SSW,3.5,-,0.00,Snow,Light Snow,210,2013-02-03 02:00:00
8:11 PM,19.4,15.8,86,30.08,2.5,South,4.6,-,0.00,Snow,Light Snow,180,2013-02-03 02:11:00
8:16 PM,19.4,15.8,86,30.07,4.0,South,4.6,-,0.00,Snow,Light Snow,180,2013-02-03 02:16:00
8:24 PM,19.4,15.8,86,30.06,6.0,SSE,4.6,-,0.00,,Overcast,160,2013-02-03 02:24:00
8:48 PM,19.4,15.8,86,30.04,2.5,South,6.9,-,0.00,Snow,Light Snow,170,2013-02-03 02:48:00
8:53 PM,19.0,16.0,88,30.09,2.0,South,5.8,-,0.00,Snow,Light Snow,180,2013-02-03 02:53:00
9:10 PM,19.4,15.8,86,30.04,5.0,South,4.6,-,0.00,Snow,Light Snow,170,2013-02-03 03:10:00
9:53 PM,19.9,17.1,89,30.07,10.0,South,5.8,-,0.00,,Overcast,170,2013-02-03 03:53:00
10:53 PM,19.9,17.1,89,30.04,10.0,South,8.1,-,N/A,,Overcast,190,2013-02-03 04:53:00
11:53 PM,21.9,19.0,89,30.02,10.0,SW,8.1,-,0.00,,Overcast,220,2013-02-03 05:53:00